Year,Month,Day,Hour,Minute,Value (Times are PST for windgust in km/hr)
2010,04,02,00,00,20.90
2010,04,02,00,01,22.50
2010,04,02,00,02,29.00
2010,04,02,00,03,27.40
2010,04,02,00,04,22.50
2010,04,02,00,05,20.90
2010,04,02,00,06,20.90
2010,04,02,00,07,22.50
2010,04,02,00,08,29.00
2010,04,02,00,09,12.90
2010,04,02,00,10,17.70
2010,04,02,00,11,20.90
2010,04,02,00,12,27.40
2010,04,02,00,13,17.70
2010,04,02,00,14,16.10
2010,04,02,00,15,20.90
2010,04,02,00,16,16.10
2010,04,02,00,17,20.90
2010,04,02,00,18,17.70
2010,04,02,00,19,17.70
2010,04,02,00,20,24.20
2010,04,02,00,21,22.50
2010,04,02,00,22,16.10
2010,04,02,00,23,25.70
2010,04,02,00,24,24.20
2010,04,02,00,25,19.30
2010,04,02,00,26,17.70
2010,04,02,00,27,22.50
2010,04,02,00,28,17.70
2010,04,02,00,29,24.20
2010,04,02,00,30,16.10
2010,04,02,00,31,17.70
2010,04,02,00,32,24.20
2010,04,02,00,33,27.40
2010,04,02,00,34,25.70
2010,04,02,00,35,16.10
2010,04,02,00,36,16.10
2010,04,02,00,37,24.20
2010,04,02,00,38,30.60
2010,04,02,00,39,20.90
2010,04,02,00,40,24.20
2010,04,02,00,41,30.60
2010,04,02,00,42,22.50
2010,04,02,00,43,25.70
2010,04,02,00,44,22.50
2010,04,02,00,45,9.60
2010,04,02,00,46,17.70
2010,04,02,00,47,33.80
2010,04,02,00,48,20.90
2010,04,02,00,49,20.90
2010,04,02,00,50,30.60
2010,04,02,00,51,29.00
2010,04,02,00,52,27.40
2010,04,02,00,53,8.10
2010,04,02,00,54,20.90
2010,04,02,00,55,14.50
2010,04,02,00,56,25.70
2010,04,02,00,57,30.60
2010,04,02,00,58,29.00
2010,04,02,00,59,16.10
2010,04,02,01,00,19.30
2010,04,02,01,01,30.60
2010,04,02,01,02,30.60
2010,04,02,01,03,25.70
2010,04,02,01,04,20.90
2010,04,02,01,05,22.50
2010,04,02,01,06,24.20
2010,04,02,01,07,12.90
2010,04,02,01,08,16.10
2010,04,02,01,09,19.30
2010,04,02,01,10,19.30
2010,04,02,01,11,24.20
2010,04,02,01,12,22.50
2010,04,02,01,13,20.90
2010,04,02,01,14,35.40
2010,04,02,01,15,20.90
2010,04,02,01,16,25.70
2010,04,02,01,17,22.50
2010,04,02,01,18,20.90
2010,04,02,01,19,24.20
2010,04,02,01,20,24.20
2010,04,02,01,21,25.70
2010,04,02,01,22,24.20
2010,04,02,01,23,27.40
2010,04,02,01,24,29.00
2010,04,02,01,25,33.80
2010,04,02,01,26,22.50
2010,04,02,01,27,22.50
2010,04,02,01,28,17.70
2010,04,02,01,29,19.30
2010,04,02,01,30,24.20
2010,04,02,01,31,17.70
2010,04,02,01,32,20.90
2010,04,02,01,33,17.70
2010,04,02,01,34,16.10
2010,04,02,01,35,30.60
2010,04,02,01,36,25.70
2010,04,02,01,37,30.60
2010,04,02,01,38,30.60
2010,04,02,01,39,19.30
2010,04,02,01,40,27.40
2010,04,02,01,41,27.40
2010,04,02,01,42,24.20
2010,04,02,01,43,30.60
2010,04,02,01,44,17.70
2010,04,02,01,45,27.40
2010,04,02,01,46,27.40
2010,04,02,01,47,22.50
2010,04,02,01,48,30.60
2010,04,02,01,49,22.50
2010,04,02,01,50,27.40
2010,04,02,01,51,24.20
2010,04,02,01,52,27.40
2010,04,02,01,53,30.60
2010,04,02,01,54,38.60
2010,04,02,01,55,25.70
2010,04,02,01,56,33.80
2010,04,02,01,57,35.40
2010,04,02,01,58,20.90
2010,04,02,01,59,27.40
2010,04,02,02,00,25.70
2010,04,02,02,01,29.00
2010,04,02,02,02,25.70
2010,04,02,02,03,24.20
2010,04,02,02,04,30.60
2010,04,02,02,05,30.60
2010,04,02,02,06,27.40
2010,04,02,02,07,22.50
2010,04,02,02,08,27.40
2010,04,02,02,09,19.30
2010,04,02,02,10,33.80
2010,04,02,02,11,38.60
2010,04,02,02,12,22.50
2010,04,02,02,13,27.40
2010,04,02,02,14,29.00
2010,04,02,02,15,30.60
2010,04,02,02,16,24.20
2010,04,02,02,17,25.70
2010,04,02,02,18,22.50
2010,04,02,02,19,27.40
2010,04,02,02,20,29.00
2010,04,02,02,21,27.40
2010,04,02,02,22,22.50
2010,04,02,02,23,25.70
2010,04,02,02,24,27.40
2010,04,02,02,25,27.40
2010,04,02,02,26,22.50
2010,04,02,02,27,29.00
2010,04,02,02,28,29.00
2010,04,02,02,29,32.20
2010,04,02,02,30,32.20
2010,04,02,02,31,24.20
2010,04,02,02,32,17.70
2010,04,02,02,33,27.40
2010,04,02,02,34,22.50
2010,04,02,02,35,20.90
2010,04,02,02,36,22.50
2010,04,02,02,37,20.90
2010,04,02,02,38,27.40
2010,04,02,02,39,32.20
2010,04,02,02,40,27.40
2010,04,02,02,41,19.30
2010,04,02,02,42,24.20
2010,04,02,02,43,29.00
2010,04,02,02,44,29.00
2010,04,02,02,45,24.20
2010,04,02,02,46,30.60
2010,04,02,02,47,20.90
2010,04,02,02,48,16.10
2010,04,02,02,49,29.00
2010,04,02,02,50,32.20
2010,04,02,02,51,25.70
2010,04,02,02,52,30.60
2010,04,02,02,53,29.00
2010,04,02,02,54,20.90
2010,04,02,02,55,20.90
2010,04,02,02,56,25.70
2010,04,02,02,57,29.00
2010,04,02,02,58,20.90
2010,04,02,02,59,27.40
2010,04,02,03,00,24.20
2010,04,02,03,01,30.60
2010,04,02,03,02,29.00
2010,04,02,03,03,25.70
2010,04,02,03,04,22.50
2010,04,02,03,05,22.50
2010,04,02,03,06,22.50
2010,04,02,03,07,25.70
2010,04,02,03,08,19.30
2010,04,02,03,09,27.40
2010,04,02,03,10,16.10
2010,04,02,03,11,14.50
2010,04,02,03,12,17.70
2010,04,02,03,13,27.40
2010,04,02,03,14,27.40
2010,04,02,03,15,20.90
2010,04,02,03,16,19.30
2010,04,02,03,17,27.40
2010,04,02,03,18,19.30
2010,04,02,03,19,24.20
2010,04,02,03,20,20.90
2010,04,02,03,21,32.20
2010,04,02,03,22,33.80
2010,04,02,03,23,25.70
2010,04,02,03,24,22.50
2010,04,02,03,25,25.70
2010,04,02,03,26,24.20
2010,04,02,03,27,17.70
2010,04,02,03,28,29.00
2010,04,02,03,29,19.30
2010,04,02,03,30,12.90
2010,04,02,03,31,16.10
2010,04,02,03,32,27.40
2010,04,02,03,33,22.50
2010,04,02,03,34,29.00
2010,04,02,03,35,20.90
2010,04,02,03,36,17.70
2010,04,02,03,37,25.70
2010,04,02,03,38,20.90
2010,04,02,03,39,20.90
2010,04,02,03,40,12.90
2010,04,02,03,41,17.70
2010,04,02,03,42,19.30
2010,04,02,03,43,20.90
2010,04,02,03,44,19.30
2010,04,02,03,45,11.30
2010,04,02,03,46,8.10
2010,04,02,03,47,6.40
2010,04,02,03,48,17.70
2010,04,02,03,49,11.30
2010,04,02,03,50,8.10
2010,04,02,03,51,11.30
2010,04,02,03,52,11.30
2010,04,02,03,53,11.30
2010,04,02,03,54,3.20
2010,04,02,03,55,8.10
2010,04,02,03,56,8.10
2010,04,02,03,57,3.20
2010,04,02,03,58,4.80
2010,04,02,03,59,3.20
2010,04,02,04,00,4.80
2010,04,02,04,01,6.40
2010,04,02,04,02,3.20
2010,04,02,04,03,6.40
2010,04,02,04,04,4.80
2010,04,02,04,05,0.00
2010,04,02,04,06,0.00
2010,04,02,04,07,0.00
2010,04,02,04,08,0.00
2010,04,02,04,09,3.20
2010,04,02,04,10,1.60
2010,04,02,04,11,1.60
2010,04,02,04,12,4.80
2010,04,02,04,13,3.20
2010,04,02,04,14,3.20
2010,04,02,04,15,4.80
2010,04,02,04,16,4.80
2010,04,02,04,17,4.80
2010,04,02,04,18,4.80
2010,04,02,04,19,3.20
2010,04,02,04,20,3.20
2010,04,02,04,21,3.20
2010,04,02,04,22,3.20
2010,04,02,04,23,6.40
2010,04,02,04,24,4.80
2010,04,02,04,25,3.20
2010,04,02,04,26,0.00
2010,04,02,04,27,1.60
2010,04,02,04,28,1.60
2010,04,02,04,29,1.60
2010,04,02,04,30,3.20
2010,04,02,04,31,1.60
2010,04,02,04,32,3.20
2010,04,02,04,33,4.80
2010,04,02,04,34,3.20
2010,04,02,04,35,1.60
2010,04,02,04,36,1.60
2010,04,02,04,37,9.60
2010,04,02,04,38,8.10
2010,04,02,04,39,4.80
2010,04,02,04,40,9.60
2010,04,02,04,41,9.60
2010,04,02,04,42,11.30
2010,04,02,04,43,11.30
2010,04,02,04,44,6.40
2010,04,02,04,45,12.90
2010,04,02,04,46,22.50
2010,04,02,04,47,20.90
2010,04,02,04,48,20.90
2010,04,02,04,49,25.70
2010,04,02,04,50,20.90
2010,04,02,04,51,24.20
2010,04,02,04,52,25.70
2010,04,02,04,53,17.70
2010,04,02,04,54,14.50
2010,04,02,04,55,24.20
2010,04,02,04,56,30.60
2010,04,02,04,57,14.50
2010,04,02,04,58,17.70
2010,04,02,04,59,29.00
2010,04,02,05,00,32.20
2010,04,02,05,01,29.00
2010,04,02,05,02,19.30
2010,04,02,05,03,17.70
2010,04,02,05,04,11.30
2010,04,02,05,05,25.70
2010,04,02,05,06,25.70
2010,04,02,05,07,20.90
2010,04,02,05,08,30.60
2010,04,02,05,09,33.80
2010,04,02,05,10,29.00
2010,04,02,05,11,24.20
2010,04,02,05,12,22.50
2010,04,02,05,13,33.80
2010,04,02,05,14,20.90
2010,04,02,05,15,38.60
2010,04,02,05,16,16.10
2010,04,02,05,17,24.20
2010,04,02,05,18,25.70
2010,04,02,05,19,27.40
2010,04,02,05,20,32.20
2010,04,02,05,21,29.00
2010,04,02,05,22,25.70
2010,04,02,05,23,25.70
2010,04,02,05,24,30.60
2010,04,02,05,25,22.50
2010,04,02,05,26,29.00
2010,04,02,05,27,25.70
2010,04,02,05,28,38.60
2010,04,02,05,29,19.30
2010,04,02,05,30,29.00
2010,04,02,05,31,33.80
2010,04,02,05,32,22.50
2010,04,02,05,33,25.70
2010,04,02,05,34,16.10
2010,04,02,05,35,25.70
2010,04,02,05,36,32.20
2010,04,02,05,37,48.30
2010,04,02,05,38,32.20
2010,04,02,05,39,22.50
2010,04,02,05,40,14.50
2010,04,02,05,41,20.90
2010,04,02,05,42,30.60
2010,04,02,05,43,37.00
2010,04,02,05,44,22.50
2010,04,02,05,45,37.00
2010,04,02,05,46,25.70
2010,04,02,05,47,43.50
2010,04,02,05,48,33.80
2010,04,02,05,49,19.30
2010,04,02,05,50,20.90
2010,04,02,05,51,38.60
2010,04,02,05,52,37.00
2010,04,02,05,53,22.50
2010,04,02,05,54,27.40
2010,04,02,05,55,32.20
2010,04,02,05,56,14.50
2010,04,02,05,57,33.80
2010,04,02,05,58,37.00
2010,04,02,05,59,29.00
2010,04,02,06,00,22.50
2010,04,02,06,01,30.60
2010,04,02,06,02,45.10
2010,04,02,06,03,25.70
2010,04,02,06,04,22.50
2010,04,02,06,05,30.60
2010,04,02,06,06,19.30
2010,04,02,06,07,29.00
2010,04,02,06,08,30.60
2010,04,02,06,09,19.30
2010,04,02,06,10,22.50
2010,04,02,06,11,29.00
2010,04,02,06,12,27.40
2010,04,02,06,13,29.00
2010,04,02,06,14,40.20
2010,04,02,06,15,40.20
2010,04,02,06,16,30.60
2010,04,02,06,17,25.70
2010,04,02,06,18,38.60
2010,04,02,06,19,32.20
2010,04,02,06,20,32.20
2010,04,02,06,21,32.20
2010,04,02,06,22,53.10
2010,04,02,06,23,33.80
2010,04,02,06,24,37.00
2010,04,02,06,25,38.60
2010,04,02,06,26,40.20
2010,04,02,06,27,38.60
2010,04,02,06,28,41.80
2010,04,02,06,29,35.40
2010,04,02,06,30,62.70
2010,04,02,06,31,30.60
2010,04,02,06,32,41.80
2010,04,02,06,33,30.60
2010,04,02,06,34,40.20
2010,04,02,06,35,33.80
2010,04,02,06,36,37.00
2010,04,02,06,37,45.10
2010,04,02,06,38,41.80
2010,04,02,06,39,33.80
2010,04,02,06,40,37.00
2010,04,02,06,41,32.20
2010,04,02,06,42,35.40
2010,04,02,06,43,48.30
2010,04,02,06,44,38.60
2010,04,02,06,45,43.50
2010,04,02,06,46,38.60
2010,04,02,06,47,32.20
2010,04,02,06,48,43.50
2010,04,02,06,49,49.90
2010,04,02,06,50,40.20
2010,04,02,06,51,25.70
2010,04,02,06,52,37.00
2010,04,02,06,53,43.50
2010,04,02,06,54,27.40
2010,04,02,06,55,45.10
2010,04,02,06,56,46.70
2010,04,02,06,57,27.40
2010,04,02,06,58,53.10
2010,04,02,06,59,27.40
2010,04,02,07,00,43.50
2010,04,02,07,01,43.50
2010,04,02,07,02,54.70
2010,04,02,07,03,46.70
2010,04,02,07,04,46.70
2010,04,02,07,05,46.70
2010,04,02,07,06,32.20
2010,04,02,07,07,45.10
2010,04,02,07,08,41.80
2010,04,02,07,09,43.50
2010,04,02,07,10,33.80
2010,04,02,07,11,24.20
2010,04,02,07,12,24.20
2010,04,02,07,13,30.60
2010,04,02,07,14,29.00
2010,04,02,07,15,24.20
2010,04,02,07,16,45.10
2010,04,02,07,17,46.70
2010,04,02,07,18,37.00
2010,04,02,07,19,30.60
2010,04,02,07,20,46.70
2010,04,02,07,21,40.20
2010,04,02,07,22,33.80
2010,04,02,07,23,30.60
2010,04,02,07,24,24.20
2010,04,02,07,25,53.10
2010,04,02,07,26,49.90
2010,04,02,07,27,20.90
2010,04,02,07,28,30.60
2010,04,02,07,29,25.70
2010,04,02,07,30,32.20
2010,04,02,07,31,38.60
2010,04,02,07,32,20.90
2010,04,02,07,33,33.80
2010,04,02,07,34,40.20
2010,04,02,07,35,22.50
2010,04,02,07,36,38.60
2010,04,02,07,37,24.20
2010,04,02,07,38,25.70
2010,04,02,07,39,30.60
2010,04,02,07,40,24.20
2010,04,02,07,41,43.50
2010,04,02,07,42,30.60
2010,04,02,07,43,33.80
2010,04,02,07,44,38.60
2010,04,02,07,45,49.90
2010,04,02,07,46,37.00
2010,04,02,07,47,48.30
2010,04,02,07,48,25.70
2010,04,02,07,49,29.00
2010,04,02,07,50,24.20
2010,04,02,07,51,25.70
2010,04,02,07,52,32.20
2010,04,02,07,53,38.60
2010,04,02,07,54,25.70
2010,04,02,07,55,35.40
2010,04,02,07,56,43.50
2010,04,02,07,57,27.40
2010,04,02,07,58,16.10
2010,04,02,07,59,32.20
2010,04,02,08,00,40.20
2010,04,02,08,01,32.20
2010,04,02,08,02,40.20
2010,04,02,08,03,22.50
2010,04,02,08,04,46.70
2010,04,02,08,05,45.10
2010,04,02,08,06,57.90
2010,04,02,08,07,32.20
2010,04,02,08,08,41.80
2010,04,02,08,09,24.20
2010,04,02,08,10,43.50
2010,04,02,08,11,33.80
2010,04,02,08,12,48.30
2010,04,02,08,13,20.90
2010,04,02,08,14,22.50
2010,04,02,08,15,40.20
2010,04,02,08,16,30.60
2010,04,02,08,17,41.80
2010,04,02,08,18,40.20
2010,04,02,08,19,40.20
2010,04,02,08,20,41.80
2010,04,02,08,21,43.50
2010,04,02,08,22,49.90
2010,04,02,08,23,24.20
2010,04,02,08,24,27.40
2010,04,02,08,25,43.50
2010,04,02,08,26,37.00
2010,04,02,08,27,35.40
2010,04,02,08,28,43.50
2010,04,02,08,29,40.20
2010,04,02,08,30,40.20
2010,04,02,08,31,32.20
2010,04,02,08,32,33.80
2010,04,02,08,33,32.20
2010,04,02,08,34,27.40
2010,04,02,08,35,29.00
2010,04,02,08,36,25.70
2010,04,02,08,37,20.90
2010,04,02,08,38,25.70
2010,04,02,08,39,30.60
2010,04,02,08,40,38.60
2010,04,02,08,41,30.60
2010,04,02,08,42,37.00
2010,04,02,08,43,32.20
2010,04,02,08,44,30.60
2010,04,02,08,45,41.80
2010,04,02,08,46,35.40
2010,04,02,08,47,37.00
2010,04,02,08,48,38.60
2010,04,02,08,49,27.40
2010,04,02,08,50,37.00
2010,04,02,08,51,33.80
2010,04,02,08,52,33.80
2010,04,02,08,53,29.00
2010,04,02,08,54,25.70
2010,04,02,08,55,29.00
2010,04,02,08,56,30.60
2010,04,02,08,57,45.10
2010,04,02,08,58,37.00
2010,04,02,08,59,22.50
2010,04,02,09,00,33.80
2010,04,02,09,01,33.80
2010,04,02,09,02,48.30
2010,04,02,09,03,37.00
2010,04,02,09,04,40.20
2010,04,02,09,05,46.70
2010,04,02,09,06,25.70
2010,04,02,09,07,29.00
2010,04,02,09,08,37.00
2010,04,02,09,09,35.40
2010,04,02,09,10,53.10
2010,04,02,09,11,43.50
2010,04,02,09,12,29.00
2010,04,02,09,13,37.00
2010,04,02,09,14,40.20
2010,04,02,09,15,35.40
2010,04,02,09,16,33.80
2010,04,02,09,17,27.40
2010,04,02,09,18,45.10
2010,04,02,09,19,37.00
2010,04,02,09,20,38.60
2010,04,02,09,21,48.30
2010,04,02,09,22,38.60
2010,04,02,09,23,41.80
2010,04,02,09,24,38.60
2010,04,02,09,25,32.20
2010,04,02,09,26,30.60
2010,04,02,09,27,33.80
2010,04,02,09,28,40.20
2010,04,02,09,29,43.50
2010,04,02,09,30,43.50
2010,04,02,09,31,35.40
2010,04,02,09,32,32.20
2010,04,02,09,33,27.40
2010,04,02,09,34,24.20
2010,04,02,09,35,32.20
2010,04,02,09,36,38.60
2010,04,02,09,37,35.40
2010,04,02,09,38,37.00
2010,04,02,09,39,37.00
2010,04,02,09,40,20.90
2010,04,02,09,41,30.60
2010,04,02,09,42,40.20
2010,04,02,09,43,29.00
2010,04,02,09,44,19.30
2010,04,02,09,45,27.40
2010,04,02,09,46,41.80
2010,04,02,09,47,38.60
2010,04,02,09,48,22.50
2010,04,02,09,49,27.40
2010,04,02,09,50,41.80
2010,04,02,09,51,27.40
2010,04,02,09,52,17.70
2010,04,02,09,53,37.00
2010,04,02,09,54,43.50
2010,04,02,09,55,33.80
2010,04,02,09,56,30.60
2010,04,02,09,57,45.10
2010,04,02,09,58,41.80
2010,04,02,09,59,51.50
2010,04,02,10,00,40.20
2010,04,02,10,01,30.60
2010,04,02,10,02,30.60
2010,04,02,10,03,40.20
2010,04,02,10,04,29.00
2010,04,02,10,05,27.40
2010,04,02,10,06,35.40
2010,04,02,10,07,38.60
2010,04,02,10,08,30.60
2010,04,02,10,09,35.40
2010,04,02,10,10,30.60
2010,04,02,10,11,22.50
2010,04,02,10,12,27.40
2010,04,02,10,13,33.80
2010,04,02,10,14,29.00
2010,04,02,10,15,30.60
2010,04,02,10,16,29.00
2010,04,02,10,17,40.20
2010,04,02,10,18,32.20
2010,04,02,10,19,32.20
2010,04,02,10,20,29.00
2010,04,02,10,21,38.60
2010,04,02,10,22,46.70
2010,04,02,10,23,29.00
2010,04,02,10,24,25.70
2010,04,02,10,25,25.70
2010,04,02,10,26,33.80
2010,04,02,10,27,29.00
2010,04,02,10,28,45.10
2010,04,02,10,29,41.80
2010,04,02,10,30,45.10
2010,04,02,10,31,48.30
2010,04,02,10,32,35.40
2010,04,02,10,33,48.30
2010,04,02,10,34,37.00
2010,04,02,10,35,35.40
2010,04,02,10,36,45.10
2010,04,02,10,37,37.00
2010,04,02,10,38,59.50
2010,04,02,10,39,35.40
2010,04,02,10,40,32.20
2010,04,02,10,41,43.50
2010,04,02,10,42,46.70
2010,04,02,10,43,30.60
2010,04,02,10,44,37.00
2010,04,02,10,45,46.70
2010,04,02,10,46,41.80
2010,04,02,10,47,25.70
2010,04,02,10,48,25.70
2010,04,02,10,49,30.60
2010,04,02,10,50,45.10
2010,04,02,10,51,41.80
2010,04,02,10,52,38.60
2010,04,02,10,53,38.60
2010,04,02,10,54,43.50
2010,04,02,10,55,49.90
2010,04,02,10,56,30.60
2010,04,02,10,57,40.20
2010,04,02,10,58,33.80
2010,04,02,10,59,43.50
2010,04,02,11,00,38.60
2010,04,02,11,01,30.60
2010,04,02,11,02,27.40
2010,04,02,11,03,38.60
2010,04,02,11,04,45.10
2010,04,02,11,05,32.20
2010,04,02,11,06,41.80
2010,04,02,11,07,53.10
2010,04,02,11,08,30.60
2010,04,02,11,09,40.20
2010,04,02,11,10,51.50
2010,04,02,11,11,51.50
2010,04,02,11,12,33.80
2010,04,02,11,13,41.80
2010,04,02,11,14,37.00
2010,04,02,11,15,37.00
2010,04,02,11,16,54.70
2010,04,02,11,17,51.50
2010,04,02,11,18,56.30
2010,04,02,11,19,45.10
2010,04,02,11,20,43.50
2010,04,02,11,21,38.60
2010,04,02,11,22,56.30
2010,04,02,11,23,45.10
2010,04,02,11,24,51.50
2010,04,02,11,25,49.90
2010,04,02,11,26,53.10
2010,04,02,11,27,40.20
2010,04,02,11,28,37.00
2010,04,02,11,29,51.50
2010,04,02,11,30,41.80
2010,04,02,11,31,49.90
2010,04,02,11,32,33.80
2010,04,02,11,33,37.00
2010,04,02,11,34,41.80
2010,04,02,11,35,48.30
2010,04,02,11,36,43.50
2010,04,02,11,37,46.70
2010,04,02,11,38,30.60
2010,04,02,11,39,48.30
2010,04,02,11,40,51.50
2010,04,02,11,41,30.60
2010,04,02,11,42,46.70
2010,04,02,11,43,41.80
2010,04,02,11,44,40.20
2010,04,02,11,45,41.80
2010,04,02,11,46,43.50
2010,04,02,11,47,41.80
2010,04,02,11,48,48.30
2010,04,02,11,49,40.20
2010,04,02,11,50,30.60
2010,04,02,11,51,49.90
2010,04,02,11,52,49.90
2010,04,02,11,53,38.60
2010,04,02,11,54,46.70
2010,04,02,11,55,37.00
2010,04,02,11,56,30.60
2010,04,02,11,57,45.10
2010,04,02,11,58,30.60
2010,04,02,11,59,40.20
2010,04,02,12,00,45.10
2010,04,02,12,01,37.00
2010,04,02,12,02,29.00
2010,04,02,12,03,32.20
2010,04,02,12,04,51.50
2010,04,02,12,05,54.70
2010,04,02,12,06,37.00
2010,04,02,12,07,30.60
2010,04,02,12,08,49.90
2010,04,02,12,09,43.50
2010,04,02,12,10,33.80
2010,04,02,12,11,40.20
2010,04,02,12,12,45.10
2010,04,02,12,13,49.90
2010,04,02,12,14,45.10
2010,04,02,12,15,37.00
2010,04,02,12,16,37.00
2010,04,02,12,17,38.60
2010,04,02,12,18,49.90
2010,04,02,12,19,45.10
2010,04,02,12,20,54.70
2010,04,02,12,21,41.80
2010,04,02,12,22,43.50
2010,04,02,12,23,35.40
2010,04,02,12,24,49.90
2010,04,02,12,25,37.00
2010,04,02,12,26,30.60
2010,04,02,12,27,45.10
2010,04,02,12,28,33.80
2010,04,02,12,29,48.30
2010,04,02,12,30,38.60
2010,04,02,12,31,38.60
2010,04,02,12,32,48.30
2010,04,02,12,33,49.90
2010,04,02,12,34,53.10
2010,04,02,12,35,46.70
2010,04,02,12,36,46.70
2010,04,02,12,37,38.60
2010,04,02,12,38,33.80
2010,04,02,12,39,41.80
2010,04,02,12,40,24.20
2010,04,02,12,41,38.60
2010,04,02,12,42,38.60
2010,04,02,12,43,45.10
2010,04,02,12,44,35.40
2010,04,02,12,45,27.40
2010,04,02,12,46,38.60
2010,04,02,12,47,33.80
2010,04,02,12,48,35.40
2010,04,02,12,49,17.70
2010,04,02,12,50,27.40
2010,04,02,12,51,40.20
2010,04,02,12,52,49.90
2010,04,02,12,53,25.70
2010,04,02,12,54,29.00
2010,04,02,12,55,32.20
2010,04,02,12,56,43.50
2010,04,02,12,57,32.20
2010,04,02,12,58,33.80
2010,04,02,12,59,33.80
2010,04,02,13,00,35.40
2010,04,02,13,01,24.20
2010,04,02,13,02,40.20
2010,04,02,13,03,37.00
2010,04,02,13,04,56.30
2010,04,02,13,05,41.80
2010,04,02,13,06,32.20
2010,04,02,13,07,27.40
2010,04,02,13,08,51.50
2010,04,02,13,09,30.60
2010,04,02,13,10,45.10
2010,04,02,13,11,33.80
2010,04,02,13,12,30.60
2010,04,02,13,13,48.30
2010,04,02,13,14,37.00
2010,04,02,13,15,49.90
2010,04,02,13,16,38.60
2010,04,02,13,17,37.00
2010,04,02,13,18,33.80
2010,04,02,13,19,41.80
2010,04,02,13,20,43.50
2010,04,02,13,21,35.40
2010,04,02,13,22,43.50
2010,04,02,13,23,40.20
2010,04,02,13,24,35.40
2010,04,02,13,25,43.50
2010,04,02,13,26,33.80
2010,04,02,13,27,32.20
2010,04,02,13,28,49.90
2010,04,02,13,29,30.60
2010,04,02,13,30,40.20
2010,04,02,13,31,49.90
2010,04,02,13,32,25.70
2010,04,02,13,33,35.40
2010,04,02,13,34,33.80
2010,04,02,13,35,24.20
2010,04,02,13,36,35.40
2010,04,02,13,37,29.00
2010,04,02,13,38,33.80
2010,04,02,13,39,38.60
2010,04,02,13,40,29.00
2010,04,02,13,41,32.20
2010,04,02,13,42,37.00
2010,04,02,13,43,32.20
2010,04,02,13,44,35.40
2010,04,02,13,45,40.20
2010,04,02,13,46,30.60
2010,04,02,13,47,29.00
2010,04,02,13,48,29.00
2010,04,02,13,49,32.20
2010,04,02,13,50,32.20
2010,04,02,13,51,41.80
2010,04,02,13,52,43.50
2010,04,02,13,53,40.20
2010,04,02,13,54,40.20
2010,04,02,13,55,46.70
2010,04,02,13,56,33.80
2010,04,02,13,57,38.60
2010,04,02,13,58,29.00
2010,04,02,13,59,35.40
2010,04,02,14,00,38.60
2010,04,02,14,01,30.60
2010,04,02,14,02,32.20
2010,04,02,14,03,38.60
2010,04,02,14,04,35.40
2010,04,02,14,05,27.40
2010,04,02,14,06,24.20
2010,04,02,14,07,43.50
2010,04,02,14,08,35.40
2010,04,02,14,09,30.60
2010,04,02,14,10,24.20
2010,04,02,14,11,30.60
2010,04,02,14,12,37.00
2010,04,02,14,13,29.00
2010,04,02,14,14,29.00
2010,04,02,14,15,32.20
2010,04,02,14,16,25.70
2010,04,02,14,17,33.80
2010,04,02,14,18,32.20
2010,04,02,14,19,32.20
2010,04,02,14,20,29.00
2010,04,02,14,21,37.00
2010,04,02,14,22,32.20
2010,04,02,14,23,30.60
2010,04,02,14,24,25.70
2010,04,02,14,25,20.90
2010,04,02,14,26,29.00
2010,04,02,14,27,29.00
2010,04,02,14,28,43.50
2010,04,02,14,29,32.20
2010,04,02,14,30,29.00
2010,04,02,14,31,33.80
2010,04,02,14,32,41.80
2010,04,02,14,33,38.60
2010,04,02,14,34,33.80
2010,04,02,14,35,25.70
2010,04,02,14,36,27.40
2010,04,02,14,37,38.60
2010,04,02,14,38,27.40
2010,04,02,14,39,38.60
2010,04,02,14,40,38.60
2010,04,02,14,41,27.40
2010,04,02,14,42,27.40
2010,04,02,14,43,32.20
2010,04,02,14,44,29.00
2010,04,02,14,45,35.40
2010,04,02,14,46,40.20
2010,04,02,14,47,45.10
2010,04,02,14,48,32.20
2010,04,02,14,49,30.60
2010,04,02,14,50,32.20
2010,04,02,14,51,43.50
2010,04,02,14,52,29.00
2010,04,02,14,53,32.20
2010,04,02,14,54,37.00
2010,04,02,14,55,32.20
2010,04,02,14,56,37.00
2010,04,02,14,57,27.40
2010,04,02,14,58,30.60
2010,04,02,14,59,41.80
2010,04,02,15,00,30.60
2010,04,02,15,01,30.60
2010,04,02,15,02,22.50
2010,04,02,15,03,22.50
2010,04,02,15,04,20.90
2010,04,02,15,05,37.00
2010,04,02,15,06,43.50
2010,04,02,15,07,33.80
2010,04,02,15,08,25.70
2010,04,02,15,09,33.80
2010,04,02,15,10,33.80
2010,04,02,15,11,38.60
2010,04,02,15,12,33.80
2010,04,02,15,13,29.00
2010,04,02,15,14,20.90
2010,04,02,15,15,22.50
2010,04,02,15,16,24.20
2010,04,02,15,17,38.60
2010,04,02,15,18,25.70
2010,04,02,15,19,32.20
2010,04,02,15,20,22.50
2010,04,02,15,21,27.40
2010,04,02,15,22,24.20
2010,04,02,15,23,17.70
2010,04,02,15,24,29.00
2010,04,02,15,25,32.20
2010,04,02,15,26,33.80
2010,04,02,15,27,38.60
2010,04,02,15,28,32.20
2010,04,02,15,29,30.60
2010,04,02,15,30,33.80
2010,04,02,15,31,30.60
2010,04,02,15,32,32.20
2010,04,02,15,33,30.60
2010,04,02,15,34,27.40
2010,04,02,15,35,25.70
2010,04,02,15,36,38.60
2010,04,02,15,37,24.20
2010,04,02,15,38,27.40
2010,04,02,15,39,20.90
2010,04,02,15,40,27.40
2010,04,02,15,41,20.90
2010,04,02,15,42,30.60
2010,04,02,15,43,30.60
2010,04,02,15,44,29.00
2010,04,02,15,45,33.80
2010,04,02,15,46,29.00
2010,04,02,15,47,37.00
2010,04,02,15,48,27.40
2010,04,02,15,49,27.40
2010,04,02,15,50,25.70
2010,04,02,15,51,32.20
2010,04,02,15,52,24.20
2010,04,02,15,53,24.20
2010,04,02,15,54,32.20
2010,04,02,15,55,30.60
2010,04,02,15,56,22.50
2010,04,02,15,57,22.50
2010,04,02,15,58,24.20
2010,04,02,15,59,20.90
2010,04,02,16,00,24.20
2010,04,02,16,01,30.60
2010,04,02,16,02,24.20
2010,04,02,16,03,22.50
2010,04,02,16,04,24.20
2010,04,02,16,05,30.60
2010,04,02,16,06,30.60
2010,04,02,16,07,29.00
2010,04,02,16,08,29.00
2010,04,02,16,09,33.80
2010,04,02,16,10,27.40
2010,04,02,16,11,24.20
2010,04,02,16,12,24.20
2010,04,02,16,13,20.90
2010,04,02,16,14,24.20
2010,04,02,16,15,27.40
2010,04,02,16,16,24.20
2010,04,02,16,17,19.30
2010,04,02,16,18,19.30
2010,04,02,16,19,17.70
2010,04,02,16,20,22.50
2010,04,02,16,21,17.70
2010,04,02,16,22,30.60
2010,04,02,16,23,20.90
2010,04,02,16,24,22.50
2010,04,02,16,25,20.90
2010,04,02,16,26,19.30
2010,04,02,16,27,24.20
2010,04,02,16,28,24.20
2010,04,02,16,29,20.90
2010,04,02,16,30,22.50
2010,04,02,16,31,17.70
2010,04,02,16,32,27.40
2010,04,02,16,33,17.70
2010,04,02,16,34,29.00
2010,04,02,16,35,27.40
2010,04,02,16,36,22.50
2010,04,02,16,37,24.20
2010,04,02,16,38,27.40
2010,04,02,16,39,25.70
2010,04,02,16,40,17.70
2010,04,02,16,41,22.50
2010,04,02,16,42,29.00
2010,04,02,16,43,30.60
2010,04,02,16,44,27.40
2010,04,02,16,45,25.70
2010,04,02,16,46,30.60
2010,04,02,16,47,29.00
2010,04,02,16,48,38.60
2010,04,02,16,49,27.40
2010,04,02,16,50,19.30
2010,04,02,16,51,29.00
2010,04,02,16,52,29.00
2010,04,02,16,53,22.50
2010,04,02,16,54,19.30
2010,04,02,16,55,16.10
2010,04,02,16,56,19.30
2010,04,02,16,57,22.50
2010,04,02,16,58,24.20
2010,04,02,16,59,25.70
2010,04,02,17,00,29.00
2010,04,02,17,01,20.90
2010,04,02,17,02,27.40
2010,04,02,17,03,27.40
2010,04,02,17,04,20.90
2010,04,02,17,05,27.40
2010,04,02,17,06,24.20
2010,04,02,17,07,30.60
2010,04,02,17,08,25.70
2010,04,02,17,09,22.50
2010,04,02,17,10,25.70
2010,04,02,17,11,25.70
2010,04,02,17,12,24.20
2010,04,02,17,13,22.50
2010,04,02,17,14,30.60
2010,04,02,17,15,17.70
2010,04,02,17,16,19.30
2010,04,02,17,17,29.00
2010,04,02,17,18,22.50
2010,04,02,17,19,20.90
2010,04,02,17,20,32.20
2010,04,02,17,21,32.20